Location: Sagn�
(15.2046°N, 12.7898°W)
Time: 12:05:18
(UTC+00:00)

Cosmos-2242 - Pass Details

Date: 08 May 2021
Orbit: 591 x 616 km, 82.5° (Epoch: 14 June)

Event Time Altitude Azimuth Distance (km) Brightness Sun altitude
Rises 19:29:12 0° 196° (SSW) 2,844 6.4 -5.0°
Reaches altitude 10° 19:31:28 10° 202° (SSW) 1,938 5.6 -5.6°
Maximum altitude 19:35:35 46° 275° (W) 808 4.3 -6.5°
Drops below altitude 10° 19:39:40 10° 349° (N) 1,927 6.0 -7.4°
Sets 19:41:56 0° 355° (N) 2,825 6.8 -7.9°
